GONETS M 07

导读

GONETS M 07是独联体(CIS)发射的低轨通信卫星,隶属于俄罗斯“GONETS”个人卫星通信系统,于2013年9月11日发射入轨。该系列卫星主要提供全球范围内的移动卫星通信服务,支持偏远地区数据传输、短信及物联网通信,补充了地面通信网络覆盖盲区,至今仍在为商业和民用用户提供稳定的空间通信支持。

Basic Information
目录编号:
39251
目录名称:
GONETS M 07
国际标识:
2013-048C
轨道中心:
EARTH
卫星名称:
GONETS M 07
卫星全名:
--
卫星状态:
在轨 (已飞行4751 天)
发射日期:
2013-09-11 UTC
国别 :
俄罗斯(独联体) (CIS)
星等 :
--
This satellite is enrolled in the Space Conjunction Data Service (SCDS) and the current flight risk assessment level is: No High Risk
Orbit Information
数据来源 国际轨道数据 AOE轨道数据
星历时间 2026-09-14T04:44:19+0800
6小时前
查看轨道信息
2026-09-11T23:00:00+0800
2天前
查看轨道信息
半长轴 7872.398km 7872.399km
偏心率 0.0017731 0.0017739
轨道倾角 82.486° 82.487°
近地点辐角 25.227° 30.147°
升交点赤经 291.074° 292.470°
平近点角 334.967° 36.024°
近地点 1480.302km 1480.297km
远地点 1508.22km 1508.227km
周期 115.856分钟 115.856分钟
每日圈数 12.429174 12.429172
Detailed Information
使用方式:
暂无
2D Orbit Map
3D Orbit Map
Orbit Altitude Analysis Chart
Orbit Inclination Analysis Chart
Orbit Comprehensive Analysis Chart
View Comprehensive Chart
Conjunction Data List
Event ID Objects TCA Miss Dist (km) Collision Risk Probability Collision Risk Index (CRI) Action
CDM_260916-090202-144103-925122
2026-09-16T
09:02:45+0000
2.020 km
极远距离
2.039735E-6 低风险 0.41
Miss Distance Evolution Trend with All Objects Subscribe to Flight Safety Assessment
Collision Probability Evolution Trend with All Objects Subscribe to Flight Safety Assessment